Salina, KS

11:21 PM CST on December 03, 2016 (GMT -0600)
Salina Municipal

Weather History for KSLN - July, 2013

Change the Weather History Date:

Wednesday, July 10, 2013

  Actual Average Record
Temperature  
Mean Temperature 82 °F 81 °F  
Max Temperature 94 °F 93 °F 111 °F (1934)
Min Temperature 70 °F 69 °F 48 °F (1905)
Degree Days  
Heating Degree Days 0 0  
Month to date heating degree days 0 0  
Since 1 June heating degree days 7 7  
Since 1 July heating degree days 0 0  
Cooling Degree Days 17 16  
Month to date cooling degree days 164 156  
Year to date cooling degree days 692 609  
Since 1 June cooling degree days 551 481  
Growing Degree Days 32 (Base 50)    
Moisture  
Dew Point 67 °F    
Average Humidity 66    
Maximum Humidity 93    
Minimum Humidity 38    
Precipitation  
Precipitation 0.00 in 0.15 in 1.49 in (2015)
Month to date precipitation 0.67 1.48  
Year to date precipitation 16.15 17.58  
Sea Level Pressure  
Sea Level Pressure 29.97 in    
Wind  
Wind Speed 9 mph (ENE)    
Max Wind Speed 16 mph    
Max Gust Speed 24 mph    
Visibility 10 miles    
Events      
T = Trace of Precipitation, MM = Missing Value Source: NWS Daily Summary

Daily Weather History Graph

Daily Weather History Graph

Search for Another Location

Airport or City:

Trip Planner

Search our weather history database for the weather conditions in past years. The results will help you decide how hot, cold, wet, or windy it might be!

Date:

Astronomy

Jul. 10, 2013 Rise Set
Actual Time 6:14 AM CDT 8:57 PM CDT
Civil Twilight 5:43 AM CDT 9:28 PM CDT
Nautical Twilight 5:03 AM CDT 10:07 PM CDT
Astronomical Twilight 4:19 AM CDT 10:51 PM CDT
Moon 8:34 AM CDT (7/10) 10:09 PM CDT (7/10)
Length of Visible Light 15h 45m
Length of Day
14h 42m
Waxing Crescent, 5% of the Moon is Illuminated
Jul 10
Waxing Crescent
Jul 15
First Quarter
Jul 22
Full
Jul 29
Last Quarter
Aug 6
New

Hourly Weather History & Observations

Time (CDT) Temp. Heat Index Dew Point Humidity Pressure Visibility Wind Dir Wind Speed Gust Speed Precip Events Conditions
12:53 AM 73.9 °F - 69.1 °F 85% 29.94 in 10.0 mi SE 9.2 mph - N/A   Scattered Clouds
1:53 AM 73.0 °F - 69.1 °F 87% 29.94 in 10.0 mi Calm Calm - N/A   Clear
2:53 AM 72.0 °F - 69.1 °F 91% 29.95 in 10.0 mi NNW 4.6 mph - N/A   Partly Cloudy
3:53 AM 72.0 °F - 69.1 °F 91% 29.97 in 10.0 mi NW 3.5 mph - N/A   Clear
4:53 AM 72.0 °F - 68.0 °F 87% 29.97 in 10.0 mi WSW 4.6 mph - N/A   Clear
5:53 AM 71.1 °F - 66.9 °F 87% 29.96 in 10.0 mi WSW 4.6 mph - N/A   Clear
6:53 AM 72.0 °F - 66.9 °F 84% 29.97 in 10.0 mi NNE 3.5 mph - N/A   Clear
7:53 AM 73.9 °F - 68.0 °F 82% 29.98 in 10.0 mi North 6.9 mph - N/A   Clear
8:53 AM 79.0 °F - 71.1 °F 77% 30.00 in 10.0 mi NNE 9.2 mph - N/A   Clear
9:53 AM 82.0 °F 85.9 °F 70.0 °F 67% 30.00 in 10.0 mi ENE 11.5 mph - N/A   Clear
10:53 AM 86.0 °F 90.7 °F 70.0 °F 59% 30.01 in 10.0 mi NE 13.8 mph 19.6 mph N/A   Clear
11:53 AM 88.0 °F 93.8 °F 71.1 °F 57% 30.01 in 10.0 mi NE 12.7 mph - N/A   Clear
12:53 PM 90.0 °F 96.4 °F 71.1 °F 54% 30.01 in 10.0 mi East 12.7 mph - N/A   Clear
1:53 PM 91.0 °F 96.6 °F 70.0 °F 50% 30.01 in 10.0 mi East 15.0 mph - N/A   Clear
2:53 PM 93.0 °F 99.0 °F 70.0 °F 47% 30.00 in 10.0 mi ENE 12.7 mph - N/A   Clear
3:53 PM 93.0 °F 97.9 °F 69.1 °F 45% 29.99 in 10.0 mi ENE 15.0 mph 21.9 mph N/A   Partly Cloudy
4:53 PM 91.9 °F 96.9 °F 69.1 °F 47% 29.96 in 10.0 mi East 12.7 mph 20.7 mph N/A   Scattered Clouds
5:53 PM 93.0 °F 96.4 °F 66.9 °F 42% 29.95 in 10.0 mi ENE 11.5 mph - N/A   Partly Cloudy
6:53 PM 91.9 °F 92.5 °F 62.1 °F 37% 29.95 in 10.0 mi East 11.5 mph - N/A   Clear
7:53 PM 90.0 °F 90.0 °F 61.0 °F 38% 29.95 in 10.0 mi East 9.2 mph - N/A   Clear
8:53 PM 87.1 °F 87.5 °F 62.1 °F 43% 29.94 in 10.0 mi East 6.9 mph - N/A   Clear
9:53 PM 84.9 °F 85.0 °F 61.0 °F 44% 29.94 in 10.0 mi East 10.4 mph - N/A   Clear
10:53 PM 82.0 °F 83.0 °F 62.1 °F 51% 29.96 in 10.0 mi East 9.2 mph - N/A   Clear
11:53 PM 79.0 °F - 63.0 °F 58% 29.98 in 10.0 mi East 8.1 mph - N/A   Clear